When you browse on this site, cookies collect data to enhance your experience and personalize the content and advertising you see.
Visit our Privacy Policy to learn more. By continuing to use the site, you agree to this use of cookies and data.
  • In Hungary
  • List of Countries
  • For 7 days
  • Water Temperature
  • Weather Map
  • News
  • Weather Widgets
  • user-avatar
    Login

    Hourly Weather Konigswinter

    Today, 18 November, Monday

    Time Temperature Precipitation Wind Pressure Humidity
    00:00 +4°C° 0 mm 2 mps 749 mmHg 91%
    01:00 +4°C° 0.1 mm 2 mps 748 mmHg 92%
    02:00 +4°C° 0.1 mm 2 mps 748 mmHg 93%
    03:00 +4°C° 0.1 mm 2 mps 748 mmHg 94%
    04:00 +4°C° 0.1 mm 2 mps 748 mmHg 95%
    05:00 +5°C° 0.1 mm 1 mps 748 mmHg 95%
    06:00 +5°C° 0 mm 1 mps 749 mmHg 93%
    07:00 +5°C° 0.1 mm 1 mps 749 mmHg 93%
    08:00 +5°C° 0.1 mm 1 mps 749 mmHg 94%
    09:00 +5°C° 0.1 mm 1 mps 749 mmHg 94%
    10:00 +5°C° 0.3 mm 1 mps 749 mmHg 95%
    11:00 +6°C° 0.3 mm 1 mps 749 mmHg 95%
    12:00 +6°C° 0.3 mm 1 mps 749 mmHg 96%
    13:00 +6°C° 1.6 mm 1 mps 750 mmHg 96%
    14:00 +5°C° 1.6 mm 2 mps 750 mmHg 96%
    15:00 +5°C° 1.6 mm 2 mps 750 mmHg 96%
    16:00 +4°C° 1.9 mm 3 mps 750 mmHg 95%
    17:00 +4°C° 1.9 mm 3 mps 750 mmHg 95%
    18:00 +4°C° 1.9 mm 4 mps 750 mmHg 95%
    19:00 +4°C° 1.8 mm 4 mps 751 mmHg 94%
    20:00 +5°C° 1.8 mm 4 mps 751 mmHg 94%
    21:00 +5°C° 1.8 mm 5 mps 751 mmHg 93%
    22:00 +5°C° 0.4 mm 4 mps 752 mmHg 93%
    23:00 +5°C° 0.4 mm 4 mps 752 mmHg 93%

    Tomorrow, 19 November, Tuesday

    Time Temperature Precipitation Wind Pressure Humidity
    00:00 +7°C° 0.4 mm 3 mps 753 mmHg 93%
    01:00 +5°C° 0.2 mm 3 mps 753 mmHg 92%
    02:00 +5°C° 0.2 mm 3 mps 753 mmHg 92%
    03:00 +6°C° 0.2 mm 2 mps 753 mmHg 92%
    04:00 +5°C° 0 mm 2 mps 754 mmHg 92%
    05:00 +5°C° 0 mm 2 mps 754 mmHg 92%
    06:00 +5°C° 0 mm 1 mps 755 mmHg 93%
    07:00 +6°C° 0 mm 1 mps 755 mmHg 90%
    08:00 +6°C° 0 mm 1 mps 756 mmHg 88%
    09:00 +7°C° 0 mm 1 mps 756 mmHg 85%
    10:00 +7°C° 0 mm 1 mps 756 mmHg 80%
    11:00 +8°C° 0 mm 1 mps 756 mmHg 76%
    12:00 +9°C° 0 mm 1 mps 756 mmHg 71%
    13:00 +8°C° 0 mm 1 mps 756 mmHg 74%
    14:00 +8°C° 0 mm 1 mps 756 mmHg 76%
    15:00 +6°C° 0 mm 0 mps 756 mmHg 79%
    16:00 +6°C° 0 mm 0 mps 756 mmHg 81%
    17:00 +5°C° 0 mm 0 mps 757 mmHg 84%
    18:00 +4°C° 0 mm 0 mps 757 mmHg 86%
    19:00 +4°C° 0 mm 0 mps 757 mmHg 87%
    20:00 +4°C° 0 mm 0 mps 758 mmHg 88%
    21:00 +3°C° 0 mm 0 mps 758 mmHg 89%
    22:00 +3°C° 0 mm 0 mps 758 mmHg 89%
    23:00 +4°C° 0 mm 0 mps 758 mmHg 90%

    Day after tomorrow, 20 November, Wednesday

    Time Temperature Precipitation Wind Pressure Humidity
    00:00 +4°C° 0 mm 0 mps 758 mmHg 90%
    01:00 +4°C° 0 mm 0 mps 757 mmHg 91%
    02:00 +3°C° 0 mm 0 mps 757 mmHg 91%
    03:00 +3°C° 0 mm 0 mps 757 mmHg 92%
    04:00 +3°C° 0 mm 0 mps 757 mmHg 92%
    05:00 +3°C° 0 mm 0 mps 757 mmHg 92%
    06:00 +3°C° 0 mm 0 mps 757 mmHg 92%
    07:00 +4°C° 0 mm 0 mps 757 mmHg 91%
    08:00 +4°C° 0 mm 0 mps 757 mmHg 89%
    09:00 +5°C° 0 mm 0 mps 757 mmHg 88%
    10:00 +5°C° 0 mm 0 mps 757 mmHg 84%
    11:00 +7°C° 0 mm 1 mps 756 mmHg 80%
    12:00 +8°C° 0 mm 1 mps 756 mmHg 76%
    13:00 +7°C° 0 mm 1 mps 756 mmHg 78%
    14:00 +7°C° 0 mm 1 mps 755 mmHg 80%
    15:00 +5°C° 0 mm 0 mps 755 mmHg 81%
    16:00 +6°C° 0 mm 1 mps 755 mmHg 84%
    17:00 +5°C° 0 mm 1 mps 755 mmHg 86%
    18:00 +4°C° 0 mm 1 mps 755 mmHg 89%
    19:00 +4°C° 0 mm 1 mps 755 mmHg 90%
    20:00 +3°C° 0 mm 1 mps 755 mmHg 90%
    21:00 +3°C° 0 mm 1 mps 755 mmHg 91%
    22:00 +3°C° 0 mm 1 mps 755 mmHg 91%
    23:00 +3°C° 0 mm 1 mps 755 mmHg 92%

    21 November, Thursday

    Time Temperature Precipitation Wind Pressure Humidity
    00:00 +3°C° 0 mm 1 mps 755 mmHg 92%
    01:00 +3°C° 0 mm 1 mps 754 mmHg 92%
    02:00 +3°C° 0 mm 1 mps 754 mmHg 92%
    03:00 +2°C° 0 mm 2 mps 754 mmHg 93%
    04:00 +2°C° 0 mm 2 mps 754 mmHg 93%
    05:00 +2°C° 0 mm 2 mps 754 mmHg 93%
    06:00 +2°C° 0 mm 2 mps 754 mmHg 93%
    07:00 +3°C° 0 mm 2 mps 754 mmHg 90%
    08:00 +4°C° 0 mm 2 mps 754 mmHg 88%
    09:00 +5°C° 0 mm 2 mps 754 mmHg 85%
    10:00 +6°C° 0 mm 2 mps 754 mmHg 82%
    11:00 +7°C° 0 mm 2 mps 754 mmHg 79%
    12:00 +8°C° 0 mm 2 mps 754 mmHg 77%
    13:00 +7°C° 0 mm 2 mps 753 mmHg 79%
    14:00 +7°C° 0 mm 2 mps 753 mmHg 82%
    15:00 +6°C° 0 mm 2 mps 753 mmHg 84%
    16:00 +6°C° 0 mm 2 mps 753 mmHg 86%
    17:00 +5°C° 0 mm 2 mps 753 mmHg 88%
    18:00 +4°C° 0 mm 2 mps 754 mmHg 91%
    19:00 +4°C° 0 mm 2 mps 754 mmHg 91%
    20:00 +4°C° 0 mm 2 mps 754 mmHg 92%
    21:00 +4°C° 0 mm 2 mps 754 mmHg 92%
    22:00 +4°C° 0 mm 2 mps 754 mmHg 92%
    23:00 +4°C° 0 mm 2 mps 754 mmHg 92%

    22 November, Friday

    Time Temperature Precipitation Wind Pressure Humidity
    00:00 +3°C° 0 mm 2 mps 754 mmHg 92%
    01:00 +3°C° 0 mm 2 mps 754 mmHg 92%
    02:00 +3°C° 0 mm 2 mps 754 mmHg 91%
    03:00 +3°C° 0 mm 2 mps 754 mmHg 91%
    04:00 +3°C° 0 mm 2 mps 754 mmHg 91%
    05:00 +3°C° 0 mm 2 mps 754 mmHg 90%
    06:00 +3°C° 0 mm 2 mps 754 mmHg 90%
    07:00 +4°C° 0 mm 2 mps 754 mmHg 87%
    08:00 +5°C° 0 mm 2 mps 754 mmHg 84%
    09:00 +4°C° 0 mm 3 mps 753 mmHg 81%
    10:00 +5°C° 0 mm 3 mps 753 mmHg 79%
    11:00 +7°C° 0 mm 3 mps 753 mmHg 76%
    12:00 +8°C° 0 mm 3 mps 752 mmHg 73%
    13:00 +8°C° 0 mm 2 mps 752 mmHg 76%
    14:00 +7°C° 0 mm 2 mps 751 mmHg 79%
    15:00 +7°C° 0 mm 2 mps 751 mmHg 81%
    16:00 +5°C° 0 mm 3 mps 751 mmHg 82%
    17:00 +5°C° 0 mm 3 mps 750 mmHg 84%
    18:00 +4°C° 0 mm 3 mps 750 mmHg 85%
    19:00 +4°C° 0 mm 3 mps 750 mmHg 86%
    20:00 +4°C° 0 mm 3 mps 749 mmHg 87%
    21:00 +3°C° 0 mm 3 mps 749 mmHg 88%
    22:00 +4°C° 0 mm 3 mps 749 mmHg 87%
    23:00 +4°C° 0 mm 4 mps 748 mmHg 86%

    23 November, Saturday

    Time Temperature Precipitation Wind Pressure Humidity
    00:00 +4°C° 0 mm 4 mps 748 mmHg 85%
    01:00 +4°C° 0 mm 4 mps 747 mmHg 86%
    02:00 +4°C° 0 mm 4 mps 747 mmHg 86%
    03:00 +4°C° 0 mm 3 mps 746 mmHg 86%
    04:00 +4°C° 0 mm 3 mps 746 mmHg 88%
    05:00 +5°C° 0 mm 2 mps 745 mmHg 90%
    06:00 +4°C° 0 mm 2 mps 745 mmHg 91%
    07:00 +5°C° 0 mm 2 mps 745 mmHg 89%
    08:00 +5°C° 0 mm 2 mps 746 mmHg 87%
    09:00 +6°C° 0 mm 2 mps 746 mmHg 85%
    10:00 +6°C° 0 mm 2 mps 746 mmHg 84%
    11:00 +7°C° 0 mm 2 mps 746 mmHg 82%
    12:00 +8°C° 0 mm 2 mps 746 mmHg 81%
    13:00 +7°C° 0 mm 2 mps 746 mmHg 83%
    14:00 +8°C° 0 mm 1 mps 746 mmHg 85%
    15:00 +7°C° 0 mm 1 mps 746 mmHg 87%
    16:00 +7°C° 0 mm 1 mps 746 mmHg 88%
    17:00 +7°C° 0 mm 1 mps 746 mmHg 89%
    18:00 +6°C° 0 mm 1 mps 747 mmHg 89%
    19:00 +6°C° 0 mm 1 mps 747 mmHg 90%
    20:00 +6°C° 0 mm 1 mps 747 mmHg 91%
    21:00 +6°C° 0 mm 1 mps 748 mmHg 92%
    22:00 +5°C° 0 mm 1 mps 748 mmHg 92%
    23:00 +5°C° 0 mm 1 mps 748 mmHg 93%
    Show more